Weather History for Rifle, CO

Change the Weather History Date:

Sunday, February 26, 2012

  Actual Average Record
Temperature  
Mean Temperature 27 °F 34 °F  
Max Temperature 39 °F 47 °F 69 °F (1986)
Min Temperature 15 °F 22 °F -2 °F (1952)
Degree Days  
Heating Degree Days 38 31  
Month to date heating degree days 857 902  
Since 1 July heating degree days 4669 4937  
Cooling Degree Days 0 0  
Month to date cooling degree days 0  
Year to date cooling degree days 0  
Moisture  
Dew Point 1 °F    
Average Humidity 39    
Maximum Humidity 62    
Minimum Humidity 16    
Precipitation  
Precipitation 0.00 in 0.03 in 0.40 in (1955)
Month to date precipitation 0.37 0.70  
Year to date precipitation 0.94 1.51  
Sea Level Pressure  
Sea Level Pressure 30.13 in    
Wind  
Wind Speed 4 mph (West)    
Max Wind Speed 21 mph    
Max Gust Speed 26 mph    
Visibility 10 miles    
Events      
T = Trace of Precipitation, MM = Missing Value Source: NWS Daily Summary

Daily Weather History Graph

Daily Weather History Graph

Search for Another Location

Airport:

Trip Planner

Search our weather history database for the weather conditions in past years. The results will help you decide how hot, cold, wet, or windy it might be!

Date:

Astronomy

Feb. 26, 2012 Rise Set
Actual Time 6:48 AM MST 5:59 PM MST
Civil Twilight 6:21 AM MST 6:26 PM MST
Nautical Twilight 5:50 AM MST 6:57 PM MST
Astronomical Twilight 5:19 AM MST 7:28 PM MST
Moon 8:47 AM MST (2/26) 10:58 PM MST (2/26)
Length of Visible Light 12h 04m
Length of Day
11h 10m
Waxing Crescent, 21% of the Moon is Illuminated
Feb 26
Waxing Crescent
Feb 29
First Quarter
Mar 8
Full
Mar 14
Last Quarter
Mar 22
New

Hourly Weather History & Observations

Time (MST) Temp. Windchill Dew Point Humidity Pressure Visibility Wind Dir Wind Speed Gust Speed Precip Events Conditions
12:53 AM 30.9 °F 20.2 °F 3.9 °F 32% 29.96 in 10.0 mi WNW 15.0 mph - N/A   Clear
1:53 AM 28.0 °F 21.7 °F 5.0 °F 38% 29.99 in 10.0 mi WNW 5.8 mph - N/A   Clear
2:53 AM 25.0 °F 19.3 °F 3.9 °F 41% 29.99 in 10.0 mi WSW 4.6 mph - N/A   Clear
3:53 AM 25.0 °F 17.1 °F 6.1 °F 45% 30.01 in 10.0 mi West 6.9 mph - N/A   Mostly Cloudy
4:53 AM 23.0 °F - 5.0 °F 46% 30.04 in 10.0 mi Calm Calm - N/A   Mostly Cloudy
5:53 AM 21.0 °F 16.2 °F 5.0 °F 50% 30.07 in 10.0 mi Variable 3.5 mph - N/A   Clear
6:53 AM 21.0 °F - 3.9 °F 48% 30.12 in 10.0 mi Calm Calm - N/A   Clear
7:53 AM 25.0 °F 19.3 °F 5.0 °F 43% 30.15 in 10.0 mi West 4.6 mph - N/A   Clear
8:53 AM 28.0 °F 22.8 °F 1.9 °F 33% 30.18 in 10.0 mi WSW 4.6 mph - N/A   Clear
9:53 AM 30.9 °F 23.5 °F -5.1 °F 21% 30.19 in 10.0 mi West 8.1 mph 17.3 mph N/A   Clear
10:21 AM 30.2 °F 20.2 °F -5.8 °F 21% 30.16 in 10.0 mi NW 12.7 mph 19.6 mph N/A   Clear
10:53 AM 32.0 °F 24.2 °F -6.0 °F 19% 30.20 in 10.0 mi NNW 9.2 mph 17.3 mph N/A   Clear
11:53 AM 34.0 °F 27.2 °F -7.1 °F 17% 30.18 in 10.0 mi WNW 8.1 mph - N/A   Clear
12:53 PM 34.0 °F 29.8 °F -8.0 °F 16% 30.14 in 10.0 mi WSW 4.6 mph - N/A   Clear
1:53 PM 35.1 °F 31.0 °F -7.1 °F 16% 30.13 in 10.0 mi SSW 4.6 mph - N/A   Clear
2:53 PM 37.0 °F 33.3 °F -6.0 °F 16% 30.13 in 10.0 mi ESE 4.6 mph - N/A   Clear
3:53 PM 37.9 °F 34.4 °F -5.1 °F 16% 30.12 in 10.0 mi Variable 4.6 mph - N/A   Clear
4:53 PM 37.9 °F 34.4 °F -4.0 °F 17% 30.13 in 10.0 mi NNW 4.6 mph - N/A   Clear
5:53 PM 35.1 °F - -2.9 °F 20% 30.17 in 10.0 mi Calm Calm - N/A   Clear
6:53 PM 28.0 °F 20.8 °F 3.9 °F 36% 30.20 in 10.0 mi SSW 6.9 mph - N/A   Clear
7:53 PM 24.1 °F - 10.0 °F 55% 30.21 in 10.0 mi Calm Calm - N/A   Clear
8:53 PM 23.0 °F - 9.0 °F 55% 30.22 in 10.0 mi Calm Calm - N/A   Clear
9:53 PM 21.9 °F 14.5 °F 7.0 °F 53% 30.22 in 10.0 mi South 5.8 mph - N/A   Clear
10:53 PM 19.0 °F - 8.1 °F 62% 30.22 in 10.0 mi Calm Calm - N/A   Clear
11:53 PM 17.1 °F - 9.0 °F 71% 30.19 in 10.0 mi Calm Calm - N/A   Clear